EW3845 Weather Reports


time (UTC)temp
C
wind
direction
speed
KPH
gust
KPH
rain 1hr
cm
rain 24hr
cm
rain mn
cm
humidity
%
barometer
mb
20260502200038 14 39 0.0 0.0 0.38 0.79 0.79 90 1013.6
20260502194538 14 39 0.0 0.0 0.51 0.79 0.79 90 1013.9
20260502193053 15 40 0.0 0.0 0.56 0.76 0.76 89 1014.2
20260502191539 15 40 0.0 0.0 0.41 0.48 0.48 87 1014.1
20260502190042 15 147 0.0 0.0 0.41 0.41 0.41 86 1013.5
20260502184543 16 157 0.0 0.0 0.25 0.25 0.25 84 1014.0
20260502183034 17 157 0.0 0.0 0.20 0.20 0.20 81 1014.1
20260502181535 18 165 0.0 0.0 0.08 0.08 0.08 75 1014.6
20260502163024 21 32 0.0 0.0 0.00 0.00 0.00 67 1013.8
20260502161523 22 40 0.0 0.0 0.00 0.00 0.00 65 1013.9
20260502160120 22 88 0.0 0.0 0.00 0.00 0.00 69 1014.4
20260502152054 22 111 0.0 0.0 0.00 0.00 0.00 69 1015.0
20260502151645 21 75 0.0 0.0 0.00 0.00 0.00 70 1014.8
20260502151545 22 75 0.0 0.0 0.00 0.00 0.00 71 1015.2
20260502151056 22 78 0.0 0.0 0.00 0.00 0.00 72 1015.2
20260502123047 26 294 0.0 0.0 0.00 0.00 0.00 51 1016.5
20260502121546 27 182 0.0 0.0 0.00 0.00 0.00 52 1016.5
20260502114541 26 291 0.0 0.0 0.00 0.00 0.00 54 1016.9
20260502113043 25 290 0.0 0.0 0.00 0.00 0.00 55 1017.2
20260502111535 25 291 0.0 0.0 0.00 0.00 0.00 54 1017.3
20260502110037 25 153 0.0 0.0 0.00 0.00 0.00 53 1017.4
20260502104535 25 194 0.0 0.0 0.00 0.00 0.00 53 1017.7
20260502103028 25 247 0.0 0.0 0.00 0.00 0.00 55 1017.9
20260502101526 25 210 0.0 0.0 0.00 0.00 0.00 55 1018.0
20260502091516 20 130 0.0 0.0 0.00 0.00 0.00 60 1018.7
20260502064547 13 43 0.0 0.0 0.00 0.00 0.00 71 1018.9
20260502063042 13 186 0.0 0.0 0.00 0.00 0.00 71 1018.9
20260502061516 13 189 0.0 0.0 0.00 0.00 0.00 71 1018.9
20260502061113 13 46 0.0 0.0 0.00 0.00 0.00 71 1019.0
20260502060006 12 30 0.0 0.0 0.00 0.00 0.00 73 1018.8
20260502054501 11 47 0.0 0.0 0.00 0.00 0.00 75 1018.6
20260502053100 11 19 0.0 0.0 0.00 0.00 0.00 76 1018.7
20260502051603 10 72 0.0 0.0 0.00 0.00 0.00 76 1018.9
20260502050058 10 174 0.0 0.0 0.00 0.00 0.00 75 1018.7
20260502044558 10 184 0.0 0.0 0.00 0.00 0.00 76 1018.6
20260502043111 10 153 0.0 0.0 0.00 0.00 0.00 76 1018.6
20260502041619 10 150 0.0 0.0 0.00 0.00 0.00 76 1018.7
20260502040059 10 133 0.0 0.0 0.00 0.00 0.00 75 1018.7
20260502034552 10 136 0.0 0.0 0.00 0.00 0.00 74 1019.0
20260502033050 10 173 0.0 0.0 0.00 0.00 0.00 73 1018.9
20260502031547 11 173 0.0 0.0 0.00 0.00 0.00 72 1019.2
20260502030101 11 173 0.0 0.0 0.00 0.00 0.00 71 1019.2
20260502024556 11 94 0.0 0.0 0.00 0.00 0.00 71 1019.3
20260502023105 11 132 0.0 0.0 0.00 0.00 0.00 71 1019.4
20260502021543 11 132 0.0 0.0 0.00 0.00 0.00 70 1019.5
20260502020041 11 130 0.0 0.0 0.00 0.00 0.00 69 1019.5
20260502014541 11 74 0.0 0.0 0.00 0.00 0.00 68 1019.5
20260502013041 12 13 0.0 0.0 0.00 0.00 0.00 67 1019.6
20260502011540 12 13 0.0 0.0 0.00 0.00 0.00 66 1019.7
20260502010032 12 57 0.0 0.0 0.00 0.00 0.00 64 1019.8
20260502004530 12 69 0.0 0.0 0.00 0.00 0.00 63 1020.0
20260502003028 12 124 0.0 0.0 0.00 0.00 0.00 62 1020.1
20260502001536 12 124 0.0 0.0 0.00 0.00 0.00 62 1020.4
20260502000029 13 124 0.0 0.0 0.00 0.00 0.00 61 1020.6
20260501234520 13 134 0.0 0.0 0.00 0.00 0.00 60 1020.6
20260501233018 13 134 0.0 0.0 0.00 0.00 0.00 59 1020.8
20260501231515 13 134 0.0 0.0 0.00 0.00 0.00 58 1020.8
20260501230031 14 134 0.0 0.0 0.00 0.00 0.00 57 1021.0
20260501224512 14 134 0.0 0.0 0.00 0.00 0.00 57 1020.8
20260501223015 15 134 0.0 0.0 0.00 0.00 0.00 55 1020.9
20260501221507 15 134 0.0 0.0 0.00 0.00 0.00 53 1020.9
20260501220004 15 134 0.0 0.0 0.00 0.00 0.00 52 1021.0
20260501214505 16 134 0.0 0.0 0.00 0.00 0.00 50 1020.9
20260501213004 16 134 0.0 0.0 0.00 0.00 0.00 49 1020.9
20260501211502 16 134 0.0 0.0 0.00 0.00 0.00 48 1021.0
20260501210002 17 134 0.0 0.0 0.00 0.00 0.00 48 1021.0
20260501204501 17 134 0.0 0.0 0.00 0.00 0.00 48 1021.1
20260501203005 17 166 0.0 0.0 0.00 0.00 0.00 48 1021.1
20260501201601 17 166 0.0 0.0 0.00 0.00 0.00 48 1021.1